Weather History for KCCY - October, 2013

Change the Weather History Date:

Tuesday, October 22, 2013

  Actual Average Record
Temperature  
Mean Temperature 35 °F -  
Max Temperature 42 °F 61 °F 80 °F (1992)
Min Temperature 28 °F 37 °F 18 °F (1976)
Degree Days  
Heating Degree Days 30    
Moisture  
Dew Point 27 °F    
Average Humidity 71    
Maximum Humidity 93    
Minimum Humidity 53    
Precipitation  
Precipitation 0.00 in - - ()
Sea Level Pressure  
Sea Level Pressure 29.98 in    
Wind  
Wind Speed 4 mph (North)    
Max Wind Speed 18 mph    
Max Gust Speed 26 mph    
Visibility 10 miles    
Events      
Averages and records for this station are not official NWS values.
T = Trace of Precipitation, MM = Missing Value Source: NWS Daily Summary

Daily Weather History Graph

Daily Weather History Graph

Search for Another Location

Airport or City:

Trip Planner

Search our weather history database for the weather conditions in past years. The results will help you decide how hot, cold, wet, or windy it might be!

Date:

Astronomy

Oct. 22, 2013 Rise Set
Actual Time 7:32 AM CDT 6:16 PM CDT
Civil Twilight 7:03 AM CDT 6:45 PM CDT
Nautical Twilight 6:30 AM CDT 7:18 PM CDT
Astronomical Twilight 5:57 AM CDT 7:51 PM CDT
Moon 8:52 PM CDT (10/22) 11:05 AM CDT (10/22)
Length of Visible Light 11h 41m
Length of Day
10h 43m
Waning Gibbous, 86% of the Moon is Illuminated
Oct 22
Waning Gibbous
Oct 26
Last Quarter
Nov 3
New
Nov 9
First Quarter
Nov 17
Full

Hourly Weather History & Observations

Time (CDT) Temp. Windchill Dew Point Humidity Pressure Visibility Wind Dir Wind Speed Gust Speed Precip Events Conditions
12:15 AM 28.4 °F - 24.8 °F 86% 29.98 in 10.0 mi Calm Calm - N/A   Mostly Cloudy
12:35 AM 28.4 °F - 24.8 °F 86% 29.97 in 10.0 mi Calm Calm - N/A   Overcast
12:55 AM 30.2 °F - 26.6 °F 86% 29.97 in 10.0 mi Calm Calm - N/A   Overcast
1:15 AM 30.2 °F - 26.6 °F 86% 29.97 in 10.0 mi Calm Calm - N/A   Overcast
1:35 AM 30.2 °F - 24.8 °F 80% 29.98 in 10.0 mi Calm Calm - N/A   Overcast
1:55 AM 30.2 °F - 26.6 °F 86% 29.98 in 10.0 mi Calm Calm - N/A   Overcast
2:15 AM 30.2 °F - 26.6 °F 86% 29.98 in 10.0 mi Calm Calm - N/A   Overcast
2:35 AM 32.0 °F - 28.4 °F 87% 29.98 in 10.0 mi Calm Calm - N/A   Overcast
2:55 AM 32.0 °F - 28.4 °F 87% 29.98 in 10.0 mi Calm Calm - N/A   Overcast
3:15 AM 32.0 °F - 28.4 °F 87% 29.98 in 10.0 mi Calm Calm - N/A   Overcast
3:35 AM 32.0 °F 28.7 °F 28.4 °F 87% 29.96 in 10.0 mi NE 3.5 mph - N/A   Overcast
3:55 AM 32.0 °F - 28.4 °F 87% 29.96 in 10.0 mi Calm Calm - N/A   Overcast
4:15 AM 30.2 °F 26.7 °F 28.4 °F 93% 29.96 in 10.0 mi NNE 3.5 mph - N/A   Overcast
4:35 AM 32.0 °F - 26.6 °F 80% 29.95 in 10.0 mi Calm Calm - N/A   Overcast
4:55 AM 32.0 °F - 26.6 °F 80% 29.96 in 10.0 mi Calm Calm - N/A   Overcast
5:15 AM 32.0 °F - 28.4 °F 87% 29.96 in 10.0 mi Calm Calm - N/A   Overcast
5:35 AM 32.0 °F - 26.6 °F 80% 29.95 in 10.0 mi Calm Calm - N/A   Overcast
5:55 AM 32.0 °F 28.7 °F 26.6 °F 80% 29.95 in 10.0 mi NE 3.5 mph - N/A   Overcast
6:15 AM 32.0 °F 27.5 °F 28.4 °F 87% 29.95 in 10.0 mi NE 4.6 mph - N/A   Overcast
6:35 AM 32.0 °F - 26.6 °F 80% 29.95 in 10.0 mi Calm Calm - N/A   Overcast
6:55 AM 32.0 °F - 26.6 °F 80% 29.95 in 10.0 mi Calm Calm - N/A   Overcast
7:15 AM 32.0 °F 28.7 °F 26.6 °F 80% 29.95 in 10.0 mi ENE 3.5 mph - N/A   Overcast
7:35 AM 32.0 °F - 28.4 °F 87% 29.95 in 10.0 mi Calm Calm - N/A   Overcast
7:55 AM 32.0 °F - 26.6 °F 80% 29.95 in 10.0 mi Calm Calm - N/A   Overcast
8:15 AM 32.0 °F - 28.4 °F 87% 29.96 in 10.0 mi Calm Calm - N/A   Mostly Cloudy
8:35 AM 32.0 °F 28.7 °F 28.4 °F 87% 29.95 in 10.0 mi NE 3.5 mph - N/A   Mostly Cloudy
8:55 AM 33.8 °F - 28.4 °F 81% 29.95 in 10.0 mi Calm Calm - N/A   Mostly Cloudy
9:15 AM 33.8 °F 28.6 °F 26.6 °F 75% 29.96 in 10.0 mi NNE 5.8 mph - N/A   Overcast
9:35 AM 33.8 °F 27.0 °F 26.6 °F 75% 29.96 in 10.0 mi NNE 8.1 mph - N/A   Overcast
9:55 AM 35.6 °F 29.9 °F 26.6 °F 70% 29.96 in 10.0 mi NE 6.9 mph - N/A   Scattered Clouds
10:15 AM 35.6 °F 30.7 °F 26.6 °F 70% 29.97 in 10.0 mi NE 5.8 mph - N/A   Clear
10:35 AM 35.6 °F 29.9 °F 26.6 °F 70% 29.97 in 10.0 mi NE 6.9 mph - N/A   Mostly Cloudy
10:55 AM 35.6 °F 29.9 °F 26.6 °F 70% 29.97 in 10.0 mi NE 6.9 mph - N/A   Mostly Cloudy
11:15 AM 37.4 °F 32.1 °F 24.8 °F 60% 29.97 in 10.0 mi NE 6.9 mph - N/A   Mostly Cloudy
11:35 AM 37.4 °F 32.8 °F 24.8 °F 60% 29.97 in 10.0 mi NNE 5.8 mph - N/A   Overcast
11:55 AM 37.4 °F 33.8 °F 26.6 °F 65% 29.97 in 10.0 mi Variable 4.6 mph - N/A   Overcast
12:15 PM 39.2 °F 34.2 °F 24.8 °F 56% 29.97 in 10.0 mi NNE 6.9 mph - N/A   Mostly Cloudy
12:35 PM 39.2 °F 34.2 °F 26.6 °F 61% 29.97 in 10.0 mi NNE 6.9 mph - N/A   Overcast
12:55 PM 39.2 °F 35.0 °F 26.6 °F 61% 29.96 in 10.0 mi Variable 5.8 mph - N/A   Overcast
1:15 PM 41.0 °F 34.3 °F 26.6 °F 57% 29.96 in 10.0 mi North 11.5 mph - N/A   Overcast
1:35 PM 41.0 °F - 26.6 °F 57% 29.95 in 10.0 mi Calm Calm - N/A   Scattered Clouds
1:55 PM 41.0 °F 34.3 °F 28.4 °F 61% 29.94 in 10.0 mi NNW 11.5 mph - N/A   Mostly Cloudy
2:15 PM 42.8 °F 37.0 °F 26.6 °F 53% 29.94 in 10.0 mi North 10.4 mph - N/A   Mostly Cloudy
2:35 PM 42.8 °F 36.6 °F 26.6 °F 53% 29.95 in 10.0 mi NNW 11.5 mph - N/A   Mostly Cloudy
2:55 PM 42.8 °F 38.6 °F 26.6 °F 53% 29.95 in 10.0 mi North 6.9 mph 15.0 mph N/A   Mostly Cloudy
3:15 PM 42.8 °F 35.4 °F 26.6 °F 53% 29.95 in 10.0 mi NNW 15.0 mph - N/A   Mostly Cloudy
3:35 PM 42.8 °F 34.5 °F 26.6 °F 53% 29.96 in 10.0 mi NNW 18.4 mph 26.5 mph N/A   Overcast
3:55 PM 41.0 °F 32.8 °F 26.6 °F 57% 29.97 in - NNW 16.1 mph - N/A   Overcast
4:15 PM 41.0 °F 33.1 °F 24.8 °F 53% 29.97 in 10.0 mi NNW 15.0 mph - N/A   Mostly Cloudy
4:35 PM 41.0 °F 33.1 °F 26.6 °F 57% 29.98 in 10.0 mi NNW 15.0 mph - N/A   Overcast
4:55 PM 41.0 °F 33.5 °F 24.8 °F 53% 29.99 in 10.0 mi NNW 13.8 mph - N/A   Overcast
5:15 PM 39.2 °F 30.8 °F 26.6 °F 61% 29.99 in 10.0 mi NNW 15.0 mph - N/A   Overcast
5:35 PM 39.2 °F 31.2 °F 26.6 °F 61% 30.00 in 10.0 mi North 13.8 mph - N/A   Overcast
5:55 PM 39.2 °F 32.5 °F 24.8 °F 56% 30.01 in 10.0 mi NNW 10.4 mph - N/A   Overcast
6:15 PM 39.2 °F 33.6 °F 26.6 °F 61% 30.01 in 10.0 mi NNW 8.1 mph 13.8 mph N/A   Overcast
6:35 PM 37.4 °F 30.3 °F 26.6 °F 65% 30.01 in 10.0 mi NNW 10.4 mph - N/A   Overcast
6:55 PM 37.4 °F 31.4 °F 26.6 °F 65% 30.01 in 10.0 mi NW 8.1 mph - N/A   Overcast
7:15 PM 37.4 °F 32.1 °F 26.6 °F 65% 30.01 in 10.0 mi NW 6.9 mph - N/A   Overcast
7:35 PM 37.4 °F 30.8 °F 24.8 °F 60% 30.01 in 10.0 mi NNW 9.2 mph - N/A   Overcast
7:55 PM 37.4 °F 32.1 °F 24.8 °F 60% 30.01 in 10.0 mi NW 6.9 mph - N/A   Overcast
8:15 PM 37.4 °F 32.1 °F 26.6 °F 65% 30.02 in 10.0 mi NW 6.9 mph - N/A   Overcast
8:35 PM 37.4 °F 32.1 °F 26.6 °F 65% 30.02 in 10.0 mi NW 6.9 mph - N/A   Overcast
8:55 PM 37.4 °F 31.4 °F 26.6 °F 65% 30.02 in 10.0 mi NW 8.1 mph - N/A   Overcast
9:35 PM 37.4 °F 32.1 °F 26.6 °F 65% 30.02 in 10.0 mi NW 6.9 mph - N/A   Overcast
10:15 PM 37.4 °F 32.1 °F 26.6 °F 65% 30.03 in 10.0 mi NW 6.9 mph - N/A   Overcast
10:35 PM 37.4 °F 31.4 °F 26.6 °F 65% 30.03 in 10.0 mi NW 8.1 mph - N/A   Overcast
10:55 PM 37.4 °F 31.4 °F 26.6 °F 65% 30.03 in 10.0 mi NW 8.1 mph - N/A   Overcast
11:15 PM 35.6 °F 29.2 °F 26.6 °F 70% 30.03 in 10.0 mi WNW 8.1 mph - N/A   Overcast
11:35 PM 35.6 °F 28.6 °F 26.6 °F 70% 30.03 in 10.0 mi WNW 9.2 mph - N/A   Overcast
11:55 PM 35.6 °F 29.2 °F 28.4 °F 75% 30.02 in 10.0 mi NW 8.1 mph - N/A   Overcast